CDT,Max TemperatureF,Mean TemperatureF,Min TemperatureF,Max Dew PointF,MeanDew PointF,Min DewpointF,Max Humidity, Mean Humidity, Min Humidity, Max Sea Level PressureIn, Mean Sea Level PressureIn, Min Sea Level PressureIn, Max VisibilityMiles, Mean VisibilityMiles, Min VisibilityMiles, Max Wind SpeedMPH, Mean Wind SpeedMPH, Max Gust SpeedMPH,PrecipitationIn, CloudCover, Events, WindDirDegrees
2013-10-1,85,72,59,65,60,56,100,69,37,29.99,29.95,29.88,10,7,0,15,7,22,0.00,3,Fog,208
2013-10-2,84,70,56,70,60,55,100,76,51,30.05,30.00,29.92,10,7,0,13,4,28,T,1,Fog-Thunderstorm,165
2013-10-3,78,72,66,68,65,60,93,74,54,29.92,29.88,29.80,10,9,1,22,9,31,0.27,4,Rain-Thunderstorm,191
2013-10-4,87,78,68,70,67,66,93,74,55,29.91,29.88,29.83,10,9,6,20,12,25,0.00,4,,176
2013-10-5,75,59,42,66,52,37,87,63,39,29.95,29.90,29.85,10,10,9,15,7,22,0.04,4,Rain,244
2013-10-6,50,45,39,47,42,34,93,82,71,29.94,29.86,29.82,10,9,2,18,9,25,0.08,7,Rain,262
2013-10-7,70,57,43,46,43,41,93,65,36,30.12,30.06,29.94,10,10,10,15,6,18,0.00,2,,259
2013-10-8,77,60,42,49,45,41,93,62,31,30.17,30.13,30.09,10,10,10,18,8,23,0.00,0,,184
2013-10-9,75,59,43,49,44,42,93,62,31,30.18,30.13,30.09,10,10,10,14,7,18,0.00,0,,143
2013-10-10,78,60,42,54,48,42,100,68,35,30.14,30.07,29.97,10,9,2,16,6,21,0.00,0,,155
2013-10-11,79,65,50,60,55,48,100,77,54,29.97,29.92,29.83,10,7,0,23,12,29,0.00,2,Fog,156
2013-10-12,70,55,40,63,49,34,93,60,27,30.27,30.05,29.88,10,9,2,16,6,21,0.12,2,Rain,290
2013-10-13,69,54,38,39,34,28,92,57,22,30.46,30.38,30.29,10,10,8,13,5,18,0.00,0,,16
2013-10-14,69,56,42,49,38,32,70,53,35,30.37,30.20,29.99,10,10,10,22,13,29,0.00,1,,116
2013-10-15,63,56,48,59,50,37,100,73,46,30.01,29.92,29.86,10,8,2,18,12,28,0.14,6,Rain,243
2013-10-16,52,48,44,40,39,37,76,70,63,30.07,30.03,30.00,10,10,10,17,8,23,0.00,8,,276
2013-10-17,64,52,39,44,40,33,100,67,34,30.01,29.95,29.89,10,8,0,15,7,22,T,3,Fog-Rain,231
2013-10-18,51,44,36,41,35,29,93,70,46,30.11,30.06,29.97,10,10,9,16,7,20,0.00,5,,271
2013-10-19,58,46,33,37,34,32,96,68,39,30.04,29.97,29.88,10,9,5,18,9,26,0.00,3,,235
2013-10-20,70,57,43,42,39,38,82,58,33,29.91,29.84,29.78,10,10,10,17,10,26,T,3,,232
2013-10-21,53,42,31,40,32,26,89,64,38,30.11,30.04,29.94,10,10,10,16,6,23,0.00,4,,312
2013-10-22,55,44,32,43,36,30,92,78,63,30.09,29.98,29.86,10,10,8,20,9,25,0.03,8,Rain,311
2013-10-23,45,36,27,37,32,24,100,75,49,30.18,30.13,30.09,10,8,5,16,6,21,0.04,6,Rain,280
2013-10-24,46,35,23,36,27,20,92,65,38,30.45,30.33,30.16,10,10,8,20,8,26,0.00,3,,307
2013-10-25,55,38,21,30,23,19,96,60,24,30.51,30.38,30.15,10,10,10,18,8,25,0.00,0,,232
2013-10-26,57,42,27,36,28,21,85,57,28,30.20,30.12,30.04,10,10,10,20,9,25,0.00,1,,287
2013-10-27,61,42,22,30,25,20,96,61,26,30.16,30.08,29.99,10,10,10,14,5,20,0.00,0,,209
2013-10-28,67,48,29,35,30,26,92,58,24,30.24,30.17,30.05,10,10,10,10,4,13,0.00,0,,116
2013-10-29,54,48,42,54,47,33,100,83,65,30.23,30.10,30.03,10,4,0,12,7,15,0.07,6,Fog-Rain,91
2013-10-30,67,61,54,64,60,54,100,97,93,30.04,29.90,29.73,10,5,0,24,9,30,1.60,8,Fog-Rain-Thunderstorm,148
2013-10-31,63,53,43,61,53,42,100,93,86,29.75,29.59,29.49,10,7,1,21,8,26,1.32,7,Rain,263